contact:dominique.lefevre@mio.osupytheas.fr, maurice.libes@osupytheas.fr, didier.mallarino@osupytheas.fr
Project:EMSO http://www.emso-fr.org/EMSO-France
Depth: 2436.0 m
Title:EMSO Ligure Ouest : Data MII capteur MICROCAT
DateTime_Computer,Latitude,Longitude,Temperature,Conductivity,Pressure,DateTime_Instrument
DateTime_Computer,Latitude,Longitude,degC,S m-1,dbar,DateTime_Instrument
2020-05-28T00:00:20Z,42.805,6.029,13.3002,4.60057,2470.124,2020-5-28T02:01:03Z
2020-05-28T00:03:23Z,42.805,6.029,13.2988,4.60065,2470.11,2020-5-28T02:04:06Z
2020-05-28T00:06:26Z,42.805,6.029,13.2991,4.60075,2470.133,2020-5-28T02:07:09Z
2020-05-28T00:09:30Z,42.805,6.029,13.2998,4.60077,2470.087,2020-5-28T02:10:13Z
2020-05-28T00:12:33Z,42.805,6.029,13.2982,4.60072,2470.1,2020-5-28T02:13:16Z
2020-05-28T00:15:36Z,42.805,6.029,13.2987,4.60026,2470.1,2020-5-28T02:16:19Z
2020-05-28T00:18:39Z,42.805,6.029,13.2993,4.60017,2470.124,2020-5-28T02:19:22Z
2020-05-28T00:21:43Z,42.805,6.029,13.3009,4.59994,2470.124,2020-5-28T02:22:26Z
2020-05-28T00:24:46Z,42.805,6.029,13.3017,4.59998,2470.087,2020-5-28T02:25:29Z
2020-05-28T00:27:50Z,42.805,6.029,13.3007,4.60062,2470.133,2020-5-28T02:28:32Z
2020-05-28T00:30:53Z,42.805,6.029,13.3015,4.60006,2470.147,2020-5-28T02:31:36Z
2020-05-28T00:33:56Z,42.805,6.029,13.2976,4.60048,2470.11,2020-5-28T02:34:39Z
2020-05-28T00:36:59Z,42.805,6.029,13.3023,4.60043,2470.124,2020-5-28T02:37:42Z
2020-05-28T00:40:02Z,42.805,6.029,13.3013,4.60113,2470.11,2020-5-28T02:40:45Z
2020-05-28T00:43:06Z,42.805,6.029,13.3015,4.60028,2470.087,2020-5-28T02:43:49Z
2020-05-28T00:46:09Z,42.805,6.029,13.2991,4.60062,2470.1,2020-5-28T02:46:52Z
2020-05-28T00:49:12Z,42.805,6.029,13.2992,4.60039,2470.124,2020-5-28T02:49:55Z
2020-05-28T00:52:15Z,42.805,6.029,13.3017,4.60051,2470.11,2020-5-28T02:52:58Z
2020-05-28T00:55:19Z,42.805,6.029,13.3020,4.60038,2470.087,2020-5-28T02:56:01Z
2020-05-28T00:58:22Z,42.805,6.029,13.2994,4.60054,2470.1,2020-5-28T02:59:05Z
2020-05-28T01:01:25Z,42.805,6.029,13.3011,4.60111,2470.087,2020-5-28T03:02:08Z
2020-05-28T01:04:28Z,42.805,6.029,13.3031,4.60044,2470.124,2020-5-28T03:05:11Z
2020-05-28T01:07:32Z,42.805,6.029,13.3016,4.60033,2470.1,2020-5-28T03:08:15Z
2020-05-28T01:10:35Z,42.805,6.029,13.3010,4.60039,2470.11,2020-5-28T03:11:18Z
2020-05-28T01:13:38Z,42.805,6.029,13.3009,4.60061,2470.063,2020-5-28T03:14:21Z
2020-05-28T01:16:41Z,42.805,6.029,13.3009,4.60064,2470.147,2020-5-28T03:17:24Z
2020-05-28T01:19:45Z,42.805,6.029,13.3024,4.60049,2470.124,2020-5-28T03:20:27Z
2020-05-28T01:22:48Z,42.805,6.029,13.3024,4.60059,2470.147,2020-5-28T03:23:31Z
2020-05-28T01:25:51Z,42.805,6.029,13.2995,4.60051,2470.087,2020-5-28T03:26:34Z
2020-05-28T01:28:54Z,42.805,6.029,13.2990,4.60063,2470.087,2020-5-28T03:29:37Z
2020-05-28T01:31:57Z,42.805,6.029,13.3000,4.60088,2470.087,2020-5-28T03:32:40Z
2020-05-28T01:35:01Z,42.805,6.029,13.3009,4.60033,2470.063,2020-5-28T03:35:44Z
2020-05-28T01:38:04Z,42.805,6.029,13.2999,4.60029,2470.077,2020-5-28T03:38:47Z
2020-05-28T01:41:07Z,42.805,6.029,13.3019,4.60064,2470.087,2020-5-28T03:41:50Z
2020-05-28T01:44:11Z,42.805,6.029,13.3011,4.60062,2470.087,2020-5-28T03:44:54Z
2020-05-28T01:47:14Z,42.805,6.029,13.3001,4.60077,2470.063,2020-5-28T03:47:57Z
2020-05-28T01:50:17Z,42.805,6.029,13.3013,4.60036,2470.1,2020-5-28T03:51:00Z
2020-05-28T01:53:20Z,42.805,6.029,13.3011,4.60079,2470.063,2020-5-28T03:54:03Z
2020-05-28T01:56:24Z,42.805,6.029,13.2996,4.60112,2470.063,2020-5-28T03:57:06Z
2020-05-28T01:59:27Z,42.805,6.029,13.3007,4.60095,2470.1,2020-5-28T04:00:10Z
2020-05-28T02:02:30Z,42.805,6.029,13.3000,4.60074,2470.053,2020-5-28T04:03:13Z
2020-05-28T02:05:33Z,42.805,6.029,13.2992,4.60052,2470.077,2020-5-28T04:06:16Z
2020-05-28T02:08:37Z,42.805,6.029,13.2998,4.60032,2470.077,2020-5-28T04:09:19Z
2020-05-28T02:11:40Z,42.805,6.029,13.2999,4.60045,2470.04,2020-5-28T04:12:23Z
2020-05-28T02:14:43Z,42.805,6.029,13.3006,4.60025,2470.063,2020-5-28T04:15:26Z
2020-05-28T02:17:46Z,42.805,6.029,13.2998,4.60059,2470.087,2020-5-28T04:18:29Z
2020-05-28T02:20:50Z,42.805,6.029,13.2998,4.60063,2470.063,2020-5-28T04:21:33Z
2020-05-28T02:23:53Z,42.805,6.029,13.3001,4.60058,2470.077,2020-5-28T04:24:36Z
2020-05-28T02:26:56Z,42.805,6.029,13.2993,4.60096,2470.04,2020-5-28T04:27:39Z
2020-05-28T02:29:59Z,42.805,6.029,13.2985,4.60082,2470.1,2020-5-28T04:30:42Z
2020-05-28T02:33:03Z,42.805,6.029,13.2991,4.60082,2470.063,2020-5-28T04:33:46Z
2020-05-28T02:36:06Z,42.805,6.029,13.3000,4.60118,2470.087,2020-5-28T04:36:49Z
2020-05-28T02:39:09Z,42.805,6.029,13.2989,4.60040,2470.063,2020-5-28T04:39:52Z
2020-05-28T02:42:13Z,42.805,6.029,13.3004,4.60016,2470.063,2020-5-28T04:42:56Z
2020-05-28T02:45:16Z,42.805,6.029,13.2991,4.60025,2470.077,2020-5-28T04:45:59Z
2020-05-28T02:48:19Z,42.805,6.029,13.2999,4.60069,2470.053,2020-5-28T04:49:02Z
2020-05-28T02:51:22Z,42.805,6.029,13.2983,4.60112,2470.077,2020-5-28T04:52:05Z
2020-05-28T02:54:26Z,42.805,6.029,13.3019,4.60046,2470.063,2020-5-28T04:55:09Z
2020-05-28T02:57:29Z,42.805,6.029,13.2995,4.60081,2470.017,2020-5-28T04:58:12Z
2020-05-28T03:00:32Z,42.805,6.029,13.2998,4.60072,2470.04,2020-5-28T05:01:15Z
2020-05-28T03:03:35Z,42.805,6.029,13.2987,4.60033,2470.053,2020-5-28T05:04:18Z
2020-05-28T03:06:39Z,42.805,6.029,13.2990,4.60050,2470.077,2020-5-28T05:07:21Z
2020-05-28T03:09:42Z,42.805,6.029,13.2997,4.60064,2470.063,2020-5-28T05:10:25Z
2020-05-28T03:12:45Z,42.805,6.029,13.2986,4.60094,2470.077,2020-5-28T05:13:28Z
2020-05-28T03:15:49Z,42.805,6.029,13.3006,4.60093,2470.063,2020-5-28T05:16:31Z
2020-05-28T03:18:52Z,42.805,6.029,13.3008,4.60074,2470.053,2020-5-28T05:19:35Z
2020-05-28T03:21:55Z,42.805,6.029,13.3006,4.60072,2470.04,2020-5-28T05:22:38Z
2020-05-28T03:24:58Z,42.805,6.029,13.3011,4.60099,2470.03,2020-5-28T05:25:41Z
2020-05-28T03:28:02Z,42.805,6.029,13.3008,4.60021,2470.04,2020-5-28T05:28:45Z
2020-05-28T03:31:05Z,42.805,6.029,13.3014,4.60015,2470.04,2020-5-28T05:31:48Z
2020-05-28T03:34:08Z,42.805,6.029,13.3001,4.60051,2470.03,2020-5-28T05:34:51Z
2020-05-28T03:37:12Z,42.805,6.029,13.3004,4.60043,2470.017,2020-5-28T05:37:55Z
2020-05-28T03:40:15Z,42.805,6.029,13.2999,4.60115,2470.03,2020-5-28T05:40:58Z
2020-05-28T03:43:18Z,42.805,6.029,13.3010,4.60102,2470.04,2020-5-28T05:44:01Z
2020-05-28T03:46:21Z,42.805,6.029,13.3001,4.60033,2470.053,2020-5-28T05:47:04Z
2020-05-28T03:49:25Z,42.805,6.029,13.3018,4.60018,2470.03,2020-5-28T05:50:08Z
2020-05-28T03:52:28Z,42.805,6.029,13.3023,4.60035,2469.97,2020-5-28T05:53:11Z
2020-05-28T03:55:31Z,42.805,6.029,13.3003,4.60025,2470.053,2020-5-28T05:56:14Z
2020-05-28T03:58:35Z,42.805,6.029,13.3023,4.60028,2470.007,2020-5-28T05:59:18Z
2020-05-28T04:01:38Z,42.805,6.029,13.3006,4.60039,2470.007,2020-5-28T06:02:21Z
2020-05-28T04:04:41Z,42.805,6.029,13.3009,4.60022,2470.03,2020-5-28T06:05:24Z
2020-05-28T04:07:44Z,42.805,6.029,13.2990,4.60082,2470.03,2020-5-28T06:08:27Z
2020-05-28T04:10:48Z,42.805,6.029,13.3031,4.60082,2470.04,2020-5-28T06:11:31Z
2020-05-28T04:13:51Z,42.805,6.029,13.3011,4.60082,2469.993,2020-5-28T06:14:34Z
2020-05-28T04:16:54Z,42.805,6.029,13.2992,4.60114,2470.007,2020-5-28T06:17:37Z
2020-05-28T04:19:57Z,42.805,6.029,13.3005,4.60078,2469.993,2020-5-28T06:20:40Z
2020-05-28T04:23:00Z,42.805,6.029,13.2990,4.60059,2470.03,2020-5-28T06:23:43Z
2020-05-28T04:26:04Z,42.805,6.029,13.3000,4.60074,2470.007,2020-5-28T06:26:47Z
2020-05-28T04:29:07Z,42.805,6.029,13.2993,4.60102,2470.017,2020-5-28T06:29:50Z
2020-05-28T04:32:10Z,42.805,6.029,13.2996,4.60075,2470.03,2020-5-28T06:32:53Z
2020-05-28T04:35:13Z,42.805,6.029,13.3004,4.60030,2470.053,2020-5-28T06:35:56Z
2020-05-28T04:38:17Z,42.805,6.029,13.2986,4.59988,2470.03,2020-5-28T06:39:00Z
2020-05-28T04:41:20Z,42.805,6.029,13.3029,4.59999,2470.017,2020-5-28T06:42:03Z
2020-05-28T04:44:23Z,42.805,6.029,13.3010,4.59986,2469.984,2020-5-28T06:45:06Z
2020-05-28T04:47:27Z,42.805,6.029,13.2986,4.60017,2470.007,2020-5-28T06:48:10Z
2020-05-28T04:50:30Z,42.805,6.029,13.2996,4.60009,2470.007,2020-5-28T06:51:13Z
2020-05-28T04:53:33Z,42.805,6.029,13.2983,4.60042,2470.007,2020-5-28T06:54:16Z
2020-05-28T04:56:36Z,42.805,6.029,13.2982,4.60068,2469.993,2020-5-28T06:57:19Z
2020-05-28T04:59:39Z,42.805,6.029,13.2999,4.60040,2469.984,2020-5-28T07:00:22Z
2020-05-28T05:02:43Z,42.805,6.029,13.3028,4.60003,2469.984,2020-5-28T07:03:26Z
2020-05-28T05:05:46Z,42.805,6.029,13.3013,4.60039,2470.007,2020-5-28T07:06:29Z
2020-05-28T05:08:49Z,42.805,6.029,13.3000,4.60041,2469.984,2020-5-28T07:09:32Z
2020-05-28T05:11:52Z,42.805,6.029,13.3006,4.60056,2469.947,2020-5-28T07:12:35Z
2020-05-28T05:14:56Z,42.805,6.029,13.3016,4.60038,2469.97,2020-5-28T07:15:39Z
2020-05-28T05:17:59Z,42.805,6.029,13.3009,4.60052,2469.993,2020-5-28T07:18:42Z
2020-05-28T05:21:02Z,42.805,6.029,13.3021,4.60033,2469.984,2020-5-28T07:21:45Z
2020-05-28T05:24:05Z,42.805,6.029,13.3004,4.60092,2469.947,2020-5-28T07:24:48Z
2020-05-28T05:27:08Z,42.805,6.029,13.3021,4.60059,2469.993,2020-5-28T07:27:51Z
2020-05-28T05:30:12Z,42.805,6.029,13.3031,4.60062,2469.993,2020-5-28T07:30:55Z
2020-05-28T05:33:15Z,42.805,6.029,13.3039,4.60007,2470.007,2020-5-28T07:33:58Z
2020-05-28T05:36:18Z,42.805,6.029,13.3008,4.60021,2470.007,2020-5-28T07:37:01Z
2020-05-28T05:39:21Z,42.805,6.029,13.3025,4.60016,2469.97,2020-5-28T07:40:04Z
2020-05-28T05:42:25Z,42.805,6.029,13.3056,4.60045,2470.007,2020-5-28T07:43:08Z
2020-05-28T05:45:28Z,42.805,6.029,13.3034,4.60041,2469.993,2020-5-28T07:46:11Z
2020-05-28T05:48:31Z,42.805,6.029,13.3051,4.60016,2470.007,2020-5-28T07:49:14Z
2020-05-28T05:51:34Z,42.805,6.029,13.3031,4.60044,2469.97,2020-5-28T07:52:17Z
2020-05-28T05:54:37Z,42.805,6.029,13.3054,4.60033,2469.97,2020-5-28T07:55:20Z
2020-05-28T05:57:41Z,42.805,6.029,13.3028,4.60031,2470.007,2020-5-28T07:58:24Z
2020-05-28T06:00:44Z,42.805,6.029,13.3036,4.60041,2470.007,2020-5-28T08:01:27Z
2020-05-28T06:03:47Z,42.805,6.029,13.3019,4.60013,2469.984,2020-5-28T08:04:30Z
2020-05-28T06:06:50Z,42.805,6.029,13.3029,4.60015,2470.007,2020-5-28T08:07:33Z
2020-05-28T06:09:54Z,42.805,6.029,13.3030,4.60034,2470.007,2020-5-28T08:10:37Z
2020-05-28T06:12:57Z,42.805,6.029,13.3041,4.60054,2469.984,2020-5-28T08:13:40Z
2020-05-28T06:16:00Z,42.805,6.029,13.3026,4.60050,2469.97,2020-5-28T08:16:43Z
2020-05-28T06:19:04Z,42.805,6.029,13.3025,4.60052,2470.007,2020-5-28T08:19:47Z
2020-05-28T06:22:07Z,42.805,6.029,13.3033,4.60041,2470.007,2020-5-28T08:22:50Z
2020-05-28T06:25:10Z,42.805,6.029,13.3029,4.60023,2469.984,2020-5-28T08:25:53Z
2020-05-28T06:28:13Z,42.805,6.029,13.3026,4.60057,2469.97,2020-5-28T08:28:56Z
2020-05-28T06:31:16Z,42.805,6.029,13.3051,4.60022,2470.007,2020-5-28T08:31:59Z
2020-05-28T06:34:20Z,42.805,6.029,13.3043,4.60002,2469.97,2020-5-28T08:35:03Z
2020-05-28T06:37:23Z,42.805,6.029,13.3015,4.60041,2469.984,2020-5-28T08:38:06Z
2020-05-28T06:40:26Z,42.805,6.029,13.3015,4.60006,2469.96,2020-5-28T08:41:09Z
2020-05-28T06:43:29Z,42.805,6.029,13.3004,4.60039,2469.97,2020-5-28T08:44:12Z
2020-05-28T06:46:33Z,42.805,6.029,13.3011,4.60057,2469.984,2020-5-28T08:47:16Z
2020-05-28T06:49:36Z,42.805,6.029,13.3011,4.60022,2469.97,2020-5-28T08:50:19Z
2020-05-28T06:52:39Z,42.805,6.029,13.3007,4.60024,2470.017,2020-5-28T08:53:22Z
2020-05-28T06:55:43Z,42.805,6.029,13.3026,4.59998,2470.007,2020-5-28T08:56:26Z
2020-05-28T06:58:46Z,42.805,6.029,13.3028,4.60023,2469.97,2020-5-28T08:59:29Z
2020-05-28T07:01:49Z,42.805,6.029,13.3004,4.60026,2469.984,2020-5-28T09:02:32Z
2020-05-28T07:04:52Z,42.805,6.029,13.3005,4.59994,2470.007,2020-5-28T09:05:35Z
2020-05-28T07:07:55Z,42.805,6.029,13.2995,4.60016,2470.007,2020-5-28T09:08:38Z
2020-05-28T07:10:59Z,42.805,6.029,13.3008,4.60054,2470.03,2020-5-28T09:11:42Z
2020-05-28T07:14:02Z,42.805,6.029,13.2995,4.60079,2470.007,2020-5-28T09:14:45Z
2020-05-28T07:17:05Z,42.805,6.029,13.3001,4.60051,2469.984,2020-5-28T09:17:48Z
2020-05-28T07:20:09Z,42.805,6.029,13.2997,4.60041,2470.03,2020-5-28T09:20:51Z
2020-05-28T07:23:12Z,42.805,6.029,13.2994,4.60019,2469.984,2020-5-28T09:23:55Z
2020-05-28T07:26:15Z,42.805,6.029,13.3009,4.60029,2469.97,2020-5-28T09:26:58Z
2020-05-28T07:29:18Z,42.805,6.029,13.3010,4.60050,2469.984,2020-5-28T09:30:01Z
2020-05-28T07:32:21Z,42.805,6.029,13.3026,4.60013,2469.993,2020-5-28T09:33:04Z
2020-05-28T07:35:25Z,42.805,6.029,13.2982,4.60015,2469.97,2020-5-28T09:36:08Z
2020-05-28T07:38:28Z,42.805,6.029,13.3003,4.60034,2469.984,2020-5-28T09:39:11Z
2020-05-28T07:41:31Z,42.805,6.029,13.3021,4.60016,2469.993,2020-5-28T09:42:14Z
2020-05-28T07:44:34Z,42.805,6.029,13.3024,4.60021,2470.007,2020-5-28T09:45:17Z
2020-05-28T07:47:38Z,42.805,6.029,13.3009,4.60011,2469.984,2020-5-28T09:48:21Z
2020-05-28T07:50:41Z,42.805,6.029,13.2998,4.60008,2470.017,2020-5-28T09:51:24Z
2020-05-28T07:53:44Z,42.805,6.029,13.2996,4.60029,2470.007,2020-5-28T09:54:27Z
2020-05-28T07:56:47Z,42.805,6.029,13.3004,4.60029,2469.993,2020-5-28T09:57:30Z
2020-05-28T07:59:51Z,42.805,6.029,13.2999,4.60078,2470.007,2020-5-28T10:00:34Z
2020-05-28T08:02:54Z,42.805,6.029,13.3010,4.60102,2469.97,2020-5-28T10:03:37Z
2020-05-28T08:05:57Z,42.805,6.029,13.3033,4.60033,2470.007,2020-5-28T10:06:40Z
2020-05-28T08:09:01Z,42.805,6.029,13.2997,4.60047,2470.007,2020-5-28T10:09:44Z
2020-05-28T08:12:04Z,42.805,6.029,13.3013,4.60067,2470.017,2020-5-28T10:12:47Z
2020-05-28T08:15:07Z,42.805,6.029,13.3034,4.60033,2470.007,2020-5-28T10:15:50Z
2020-05-28T08:18:10Z,42.805,6.029,13.3024,4.60022,2469.993,2020-5-28T10:18:53Z
2020-05-28T08:21:13Z,42.805,6.029,13.3026,4.60051,2469.993,2020-5-28T10:21:56Z
2020-05-28T08:24:17Z,42.805,6.029,13.3014,4.60047,2470.007,2020-5-28T10:25:00Z
2020-05-28T08:27:20Z,42.805,6.029,13.3028,4.60061,2470.017,2020-5-28T10:28:03Z
2020-05-28T08:30:23Z,42.805,6.029,13.3040,4.60014,2470.03,2020-5-28T10:31:06Z
2020-05-28T08:33:27Z,42.805,6.029,13.3029,4.60013,2470.03,2020-5-28T10:34:10Z
2020-05-28T08:36:30Z,42.805,6.029,13.3019,4.60006,2470.03,2020-5-28T10:37:13Z
2020-05-28T08:39:33Z,42.805,6.029,13.3023,4.59997,2470.007,2020-5-28T10:40:16Z
2020-05-28T08:42:36Z,42.805,6.029,13.3034,4.60016,2470.03,2020-5-28T10:43:19Z
2020-05-28T08:45:40Z,42.805,6.029,13.3050,4.60009,2470.03,2020-5-28T10:46:23Z
2020-05-28T08:48:43Z,42.805,6.029,13.3056,4.60000,2470.017,2020-5-28T10:49:26Z
2020-05-28T08:51:46Z,42.805,6.029,13.3070,4.59993,2470.007,2020-5-28T10:52:29Z
2020-05-28T08:54:49Z,42.805,6.029,13.3023,4.59996,2470.03,2020-5-28T10:55:32Z
2020-05-28T08:57:53Z,42.805,6.029,13.3026,4.60011,2470.03,2020-5-28T10:58:36Z
2020-05-28T09:00:56Z,42.805,6.029,13.3028,4.60015,2470.007,2020-5-28T11:01:39Z
2020-05-28T09:03:59Z,42.805,6.029,13.3048,4.60005,2470.007,2020-5-28T11:04:42Z
2020-05-28T09:07:02Z,42.805,6.029,13.3051,4.60002,2470.03,2020-5-28T11:07:45Z
2020-05-28T09:10:06Z,42.805,6.029,13.3044,4.59998,2470.03,2020-5-28T11:10:49Z
2020-05-28T09:13:09Z,42.805,6.029,13.3021,4.59999,2469.993,2020-5-28T11:13:52Z
2020-05-28T09:16:12Z,42.805,6.029,13.3012,4.59998,2470.017,2020-5-28T11:16:55Z
2020-05-28T09:19:15Z,42.805,6.029,13.3002,4.60044,2470.04,2020-5-28T11:19:58Z
2020-05-28T09:22:19Z,42.805,6.029,13.3020,4.60050,2470.053,2020-5-28T11:23:01Z
2020-05-28T09:25:22Z,42.805,6.029,13.3031,4.60036,2470.03,2020-5-28T11:26:05Z
2020-05-28T09:28:25Z,42.805,6.029,13.3030,4.60023,2470.017,2020-5-28T11:29:08Z
2020-05-28T09:31:28Z,42.805,6.029,13.3032,4.60015,2469.984,2020-5-28T11:32:11Z
2020-05-28T09:34:32Z,42.805,6.029,13.3023,4.60009,2470.017,2020-5-28T11:35:15Z
2020-05-28T09:37:35Z,42.805,6.029,13.3027,4.60013,2470.017,2020-5-28T11:38:18Z
2020-05-28T09:40:38Z,42.805,6.029,13.3024,4.60009,2470.007,2020-5-28T11:41:21Z
2020-05-28T09:43:42Z,42.805,6.029,13.3007,4.60014,2470.03,2020-5-28T11:44:25Z
2020-05-28T09:46:45Z,42.805,6.029,13.3029,4.60021,2470.007,2020-5-28T11:47:28Z
2020-05-28T09:49:48Z,42.805,6.029,13.3015,4.60019,2470.007,2020-5-28T11:50:31Z
2020-05-28T09:52:51Z,42.805,6.029,13.3017,4.59999,2470.017,2020-5-28T11:53:34Z
2020-05-28T09:55:55Z,42.805,6.029,13.3014,4.59985,2470.1,2020-5-28T11:56:38Z
2020-05-28T09:58:58Z,42.805,6.029,13.3015,4.59988,2470.04,2020-5-28T11:59:41Z
2020-05-28T10:02:01Z,42.805,6.029,13.3048,4.59998,2470.017,2020-5-28T12:02:44Z
2020-05-28T10:05:04Z,42.805,6.029,13.2990,4.60000,2470.053,2020-5-28T12:05:47Z
2020-05-28T10:08:08Z,42.805,6.029,13.3005,4.60009,2470.04,2020-5-28T12:08:51Z
2020-05-28T10:11:11Z,42.805,6.029,13.3014,4.59994,2470.017,2020-5-28T12:11:54Z
2020-05-28T10:14:14Z,42.805,6.029,13.3022,4.59995,2470.03,2020-5-28T12:14:57Z
2020-05-28T10:17:17Z,42.805,6.029,13.3031,4.59999,2470.053,2020-5-28T12:18:00Z
2020-05-28T10:20:20Z,42.805,6.029,13.3039,4.60022,2470.053,2020-5-28T12:21:03Z
2020-05-28T10:23:24Z,42.805,6.029,13.3012,4.59996,2470.017,2020-5-28T12:24:07Z
2020-05-28T10:26:27Z,42.805,6.029,13.3034,4.60010,2470.04,2020-5-28T12:27:10Z
2020-05-28T10:29:30Z,42.805,6.029,13.3038,4.60013,2470.017,2020-5-28T12:30:13Z
2020-05-28T10:32:33Z,42.805,6.029,13.3042,4.60014,2470.053,2020-5-28T12:33:16Z
2020-05-28T10:35:37Z,42.805,6.029,13.3036,4.60012,2470.017,2020-5-28T12:36:20Z
2020-05-28T10:38:40Z,42.805,6.029,13.3026,4.60016,2470.063,2020-5-28T12:39:23Z
2020-05-28T10:41:43Z,42.805,6.029,13.3031,4.60022,2470.04,2020-5-28T12:42:26Z
2020-05-28T10:44:46Z,42.805,6.029,13.3033,4.60016,2470.03,2020-5-28T12:45:29Z
2020-05-28T10:47:50Z,42.805,6.029,13.3043,4.60021,2470.03,2020-5-28T12:48:33Z
2020-05-28T10:50:53Z,42.805,6.029,13.3034,4.60024,2470.007,2020-5-28T12:51:36Z
2020-05-28T10:53:56Z,42.805,6.029,13.3036,4.60010,2470.017,2020-5-28T12:54:39Z
2020-05-28T10:57:00Z,42.805,6.029,13.3032,4.60024,2470.017,2020-5-28T12:57:42Z
2020-05-28T11:00:03Z,42.805,6.029,13.3035,4.59999,2470.04,2020-5-28T13:00:46Z
2020-05-28T11:03:06Z,42.805,6.029,13.3048,4.59988,2470.007,2020-5-28T13:03:49Z
2020-05-28T11:06:09Z,42.805,6.029,13.3043,4.59988,2470.017,2020-5-28T13:06:52Z
2020-05-28T11:09:12Z,42.805,6.029,13.3048,4.59986,2470.03,2020-5-28T13:09:55Z
2020-05-28T11:12:16Z,42.805,6.029,13.3051,4.59987,2470.053,2020-5-28T13:12:59Z
2020-05-28T11:15:19Z,42.805,6.029,13.3051,4.59996,2470.03,2020-5-28T13:16:02Z
2020-05-28T11:18:22Z,42.805,6.029,13.3048,4.59988,2470.017,2020-5-28T13:19:05Z
2020-05-28T11:21:25Z,42.805,6.029,13.3050,4.59981,2470.007,2020-5-28T13:22:08Z
2020-05-28T11:24:29Z,42.805,6.029,13.3043,4.59984,2470.053,2020-5-28T13:25:12Z
2020-05-28T11:27:32Z,42.805,6.029,13.3036,4.59983,2469.993,2020-5-28T13:28:15Z
2020-05-28T11:30:35Z,42.805,6.029,13.3032,4.59988,2470.007,2020-5-28T13:31:18Z
2020-05-28T11:33:38Z,42.805,6.029,13.3027,4.60005,2470.017,2020-5-28T13:34:21Z
2020-05-28T11:36:42Z,42.805,6.029,13.3054,4.60009,2470.03,2020-5-28T13:37:25Z
2020-05-28T11:39:45Z,42.805,6.029,13.3042,4.60015,2470.007,2020-5-28T13:40:28Z
2020-05-28T11:42:48Z,42.805,6.029,13.3037,4.59999,2470.017,2020-5-28T13:43:31Z
2020-05-28T11:45:52Z,42.805,6.029,13.3010,4.60021,2469.993,2020-5-28T13:46:35Z
2020-05-28T11:48:55Z,42.805,6.029,13.3029,4.60001,2470.007,2020-5-28T13:49:38Z
2020-05-28T11:51:58Z,42.805,6.029,13.3027,4.59984,2470.007,2020-5-28T13:52:41Z
2020-05-28T11:55:01Z,42.805,6.029,13.3027,4.59988,2469.993,2020-5-28T13:55:44Z
2020-05-28T11:58:05Z,42.805,6.029,13.3030,4.59991,2470.03,2020-5-28T13:58:48Z
2020-05-28T12:01:08Z,42.805,6.029,13.3037,4.60010,2470.053,2020-5-28T14:01:51Z
2020-05-28T12:04:11Z,42.805,6.029,13.2998,4.59995,2469.993,2020-5-28T14:04:54Z
2020-05-28T12:07:14Z,42.805,6.029,13.3015,4.60029,2470.007,2020-5-28T14:07:57Z
2020-05-28T12:10:18Z,42.805,6.029,13.3000,4.60043,2470.007,2020-5-28T14:11:01Z
2020-05-28T12:13:21Z,42.805,6.029,13.3016,4.60014,2470.007,2020-5-28T14:14:04Z
2020-05-28T12:16:24Z,42.805,6.029,13.3029,4.60021,2469.984,2020-5-28T14:17:07Z
2020-05-28T12:19:27Z,42.805,6.029,13.3034,4.60023,2469.97,2020-5-28T14:20:10Z
2020-05-28T12:22:31Z,42.805,6.029,13.3018,4.60047,2469.993,2020-5-28T14:23:14Z
2020-05-28T12:25:34Z,42.805,6.029,13.3030,4.60069,2470.017,2020-5-28T14:26:17Z
2020-05-28T12:28:37Z,42.805,6.029,13.3054,4.60050,2470.017,2020-5-28T14:29:20Z
2020-05-28T12:31:41Z,42.805,6.029,13.3030,4.60061,2469.97,2020-5-28T14:32:24Z
2020-05-28T12:34:44Z,42.805,6.029,13.3036,4.60035,2469.97,2020-5-28T14:35:27Z
2020-05-28T12:37:47Z,42.805,6.029,13.3015,4.60050,2469.984,2020-5-28T14:38:30Z
2020-05-28T12:40:51Z,42.805,6.029,13.3015,4.60016,2470.007,2020-5-28T14:41:34Z
2020-05-28T12:43:54Z,42.805,6.029,13.2995,4.60027,2470.007,2020-5-28T14:44:37Z
2020-05-28T12:46:57Z,42.805,6.029,13.2994,4.60021,2469.984,2020-5-28T14:47:40Z
2020-05-28T12:50:00Z,42.805,6.029,13.3014,4.60014,2469.993,2020-5-28T14:50:43Z
2020-05-28T12:53:04Z,42.805,6.029,13.2998,4.60040,2469.993,2020-5-28T14:53:47Z
2020-05-28T12:56:07Z,42.805,6.029,13.3001,4.60038,2469.97,2020-5-28T14:56:50Z
2020-05-28T12:59:10Z,42.805,6.029,13.3006,4.60057,2469.96,2020-5-28T14:59:53Z
2020-05-28T13:02:14Z,42.805,6.029,13.2992,4.60072,2469.993,2020-5-28T15:02:57Z
2020-05-28T13:05:17Z,42.805,6.029,13.3005,4.60072,2469.97,2020-5-28T15:06:00Z
2020-05-28T13:08:20Z,42.805,6.029,13.2997,4.60044,2470.03,2020-5-28T15:09:03Z
2020-05-28T13:11:23Z,42.805,6.029,13.2996,4.60039,2469.984,2020-5-28T15:12:06Z
2020-05-28T13:14:26Z,42.805,6.029,13.3028,4.60031,2469.96,2020-5-28T15:15:09Z
2020-05-28T13:17:30Z,42.805,6.029,13.3011,4.60044,2469.984,2020-5-28T15:18:13Z
2020-05-28T13:20:33Z,42.805,6.029,13.3000,4.60069,2469.947,2020-5-28T15:21:16Z
2020-05-28T13:23:36Z,42.805,6.029,13.2993,4.60041,2469.984,2020-5-28T15:24:19Z
2020-05-28T13:26:40Z,42.805,6.029,13.3012,4.60041,2469.984,2020-5-28T15:27:23Z
2020-05-28T13:29:43Z,42.805,6.029,13.3020,4.60059,2470.03,2020-5-28T15:30:26Z
2020-05-28T13:32:46Z,42.805,6.029,13.3002,4.60061,2469.97,2020-5-28T15:33:29Z
2020-05-28T13:35:49Z,42.805,6.029,13.2997,4.60094,2469.993,2020-5-28T15:36:32Z
2020-05-28T13:38:52Z,42.805,6.029,13.3007,4.60053,2469.993,2020-5-28T15:39:35Z
2020-05-28T13:41:56Z,42.805,6.029,13.2993,4.60049,2469.947,2020-5-28T15:42:39Z
2020-05-28T13:44:59Z,42.805,6.029,13.2999,4.60033,2469.984,2020-5-28T15:45:42Z
2020-05-28T13:48:02Z,42.805,6.029,13.2991,4.60059,2469.96,2020-5-28T15:48:45Z
2020-05-28T13:51:05Z,42.805,6.029,13.2982,4.60042,2469.947,2020-5-28T15:51:48Z
2020-05-28T13:54:09Z,42.805,6.029,13.2971,4.60014,2469.97,2020-5-28T15:54:52Z
2020-05-28T13:57:12Z,42.805,6.029,13.2989,4.60043,2469.947,2020-5-28T15:57:55Z
2020-05-28T14:00:15Z,42.805,6.029,13.2979,4.60064,2469.947,2020-5-28T16:00:58Z
2020-05-28T14:03:18Z,42.805,6.029,13.3001,4.60032,2469.993,2020-5-28T16:04:01Z
2020-05-28T14:06:22Z,42.805,6.029,13.2981,4.60052,2469.97,2020-5-28T16:07:05Z
2020-05-28T14:09:25Z,42.805,6.029,13.2984,4.60033,2469.937,2020-5-28T16:10:08Z
2020-05-28T14:12:28Z,42.805,6.029,13.2984,4.60039,2469.97,2020-5-28T16:13:11Z
2020-05-28T14:15:31Z,42.805,6.029,13.2996,4.60046,2469.993,2020-5-28T16:16:14Z
2020-05-28T14:18:34Z,42.805,6.029,13.3003,4.60049,2469.97,2020-5-28T16:19:17Z
2020-05-28T14:21:38Z,42.805,6.029,13.2991,4.60041,2469.947,2020-5-28T16:22:21Z
2020-05-28T14:24:41Z,42.805,6.029,13.2986,4.60053,2469.947,2020-5-28T16:25:24Z
2020-05-28T14:27:44Z,42.805,6.029,13.2990,4.60033,2469.947,2020-5-28T16:28:27Z
2020-05-28T14:30:47Z,42.805,6.029,13.2997,4.60043,2469.947,2020-5-28T16:31:30Z
2020-05-28T14:33:51Z,42.805,6.029,13.2990,4.60058,2469.984,2020-5-28T16:34:34Z
2020-05-28T14:36:54Z,42.805,6.029,13.2990,4.60030,2469.923,2020-5-28T16:37:37Z
2020-05-28T14:39:57Z,42.805,6.029,13.2983,4.60060,2469.923,2020-5-28T16:40:40Z
2020-05-28T14:43:01Z,42.805,6.029,13.2990,4.60047,2469.937,2020-5-28T16:43:44Z
2020-05-28T14:46:04Z,42.805,6.029,13.3017,4.60031,2469.97,2020-5-28T16:46:47Z
2020-05-28T14:49:07Z,42.805,6.029,13.3006,4.60062,2469.947,2020-5-28T16:49:50Z
2020-05-28T14:52:10Z,42.805,6.029,13.2993,4.60056,2469.937,2020-5-28T16:52:53Z
2020-05-28T14:55:14Z,42.805,6.029,13.3004,4.60031,2469.97,2020-5-28T16:55:57Z
2020-05-28T14:58:17Z,42.805,6.029,13.3018,4.60046,2469.937,2020-5-28T16:59:00Z
2020-05-28T15:01:20Z,42.805,6.029,13.2993,4.60053,2469.947,2020-5-28T17:02:03Z
2020-05-28T15:04:23Z,42.805,6.029,13.3004,4.60069,2469.96,2020-5-28T17:05:06Z
2020-05-28T15:07:27Z,42.805,6.029,13.2998,4.60064,2469.937,2020-5-28T17:08:09Z
2020-05-28T15:10:30Z,42.805,6.029,13.3000,4.60063,2469.923,2020-5-28T17:11:13Z
2020-05-28T15:13:33Z,42.805,6.029,13.2993,4.60048,2469.97,2020-5-28T17:14:16Z